Weather in Ust-Kamenka

Russia / Novosibirsk Oblast     55°00′03″N   83°50′43″E
temp.,
°C
wind,
m/s
gust,
m/s
humid.,
%
clouds,
%
prec.,
mm/h
press.,
hPa
HPBL,
m
25 february, thu
thu2501:00−14wsw10188697 3.5 1011627
04:00−20wsw5149048 0.0 1014367
07:00−22wsw5138925 0.0 1017322
10:00−23ssw5129441 0.0 1018447
13:00−19sw8128131 0.0 10191177
16:00−19sw91485100 0.1 10191572
19:00−19sw71590100 0.2 10211714
22:00−21sw51291100 0.1 1022796
26 february, fri
fri2601:00−21sw61290100 0.1 1022868
04:00−22sw61294100 0.1 1023787
07:00−23sw61195100 0.3 1025817
10:00−24sw81292100 0.2 1027914
13:00−23wsw91392100 0.4 10301103
16:00−23wsw91489100 0.1 1032868
19:00−26wsw61392100 0.2 1034552
22:00−27wsw51396100 0.1 1036515
27 february, sat
sat2701:00−29sw51196100 0.1 1037397
04:00−28sw51096100 0.0 1037356
07:00−27sw51095100 0.1 1038444
10:00−26sw5994100 0.1 1038493
13:00−23sw5892100 0.1 1038572
16:00−22sw5892100 0.0 1038606
19:00−25ssw3697100 0.1 103892
22:00−28sw369640 0.0 103982
28 february, sun
sun2801:00−29ssw349629 0.0 103964
04:00−29ssw349759 0.0 103857
07:00−28s379860 0.0 103893
10:00−25s5109568 0.0 1037243
13:00−18s6109277 0.0 1034383
16:00−14s61089100 0.0 1032514
19:00−13s61290100 0.0 1028504
22:00−11s71493100 0.3 1025670
1 march, mon
mon101:00−10s71493100 1.0 1021789
04:00−9ssw71394100 1.4 1018773
07:00−8ssw71394100 2.9 1015728
10:00−6ssw81594100 1.6 1013797
13:00−3sw91595100 3.3 1012928
16:00−2sw101595100 2.0 10111039
19:00−1sw81596100 3.5 1011872
22:00−2sw81596100 1.6 1012842